Location: Asheville, NC
(35.6000°N, 82.5500°W)
Time: 07:59:23
(UTC-04:00)

XW-2B - Pass Details

Date: 18 February 2018
Orbit: 509 x 531 km, 97.5° (Epoch: 21 May)

Event Time Altitude Azimuth Distance (km) Brightness Sun altitude
Rises 05:34:47 0° 34° (NE) 2,628 ? -20.7°
Reaches altitude 10° 05:37:44 10° 60° (ENE) 1,740 ? -20.1°
Maximum altitude 05:39:46 14° 94° (E) 1,496 ? -19.7°
Drops below altitude 10° 05:41:49 10° 127° (SE) 1,740 ? -19.3°
Sets 05:44:45 0° 153° (SSE) 2,626 ? -18.7°
